Date String (YYYY-MM-DD hh:mm:ss) UTC,Instrument flags,absolute air pressure of the measurement (hPa),sample flow rate (lpm),inlet stack bypass flow (lpm),air temperature of the measurement (°C),ambient temperature measured by the external sensor (°C),aerosol sample conditioner tube jacket temperature (°C),OPC LED temperature (°C),internal box temperature (°C),relative humidity of the measurement (%),span deviation,mass concentration of particles derived from Lorenz-Mie calculation of OPC scattering (μg/m³),mass concentration of particles derived from Lorenz-Mie calculation of OPC scattering (μg/m³),mass concentration of particles derived from Lorenz-Mie calculation of OPC scattering (μg/m³)
DateTimeUTC,F1_M11,P_M11,Q1_M11,Q2_M11,T1_M11,T2_M11,T3_M11,T4_M11,T5_M11,U1_M11,ZSPAN_M11,X2_M11,X0_M11,X1_M11
2024-06-04 23:00:00,SystemResetWarning,0825.3,5.00,000.00,029.1,028.4,000.0,037.3,030.9,015.7,0000.0,0002.23,0008.00,0001.09
2024-06-04 23:01:00,SystemResetWarning,0825.3,5.01,000.00,029.2,028.6,000.0,037.3,031.0,016.0,0000.0,0002.31,0008.41,0001.10
2024-06-04 23:02:00,SystemResetWarning,0825.4,5.01,000.00,029.2,028.8,000.0,037.3,031.1,015.4,0000.0,0002.33,0008.16,0001.10
2024-06-04 23:03:00,SystemResetWarning,0825.4,5.00,000.00,029.3,028.9,000.0,037.3,031.2,015.1,0000.0,0002.34,0008.12,0001.11
2024-06-04 23:04:00,SystemResetWarning,0825.4,5.00,000.00,029.4,029.1,000.0,037.4,031.3,014.8,0000.0,0002.28,0008.02,0001.09
2024-06-04 23:05:00,SystemResetWarning,0825.4,5.00,000.00,029.5,029.1,000.0,037.4,031.3,014.8,0000.0,0002.24,0007.34,0001.09
2024-06-04 23:06:00,SystemResetWarning,0825.4,4.99,000.00,029.4,027.8,000.0,037.5,030.7,014.8,0000.0,0002.25,0007.01,0001.07
2024-06-04 23:07:00,SystemResetWarning,0825.3,5.00,000.00,029.0,025.7,000.0,037.6,029.6,015.6,0000.0,0002.25,0006.09,0001.06
2024-06-04 23:08:00,SystemResetWarning,0825.3,5.02,000.00,028.7,025.7,000.0,037.5,029.5,016.3,0000.0,0002.28,0006.42,0001.05
2024-06-04 23:09:00,SystemResetWarning,0825.3,5.00,000.00,028.7,026.2,000.0,037.4,029.8,016.1,0000.0,0002.30,0006.41,0001.05
2024-06-04 23:10:00,SystemResetWarning,0825.3,4.99,000.00,028.7,026.7,000.0,037.3,030.0,015.9,0000.0,0002.33,0006.49,0001.05
2024-06-04 23:11:00,SystemResetWarning,0825.3,5.01,000.00,028.7,027.1,000.0,037.3,030.3,015.6,0000.0,0002.32,0006.17,0001.05
2024-06-04 23:12:00,SystemResetWarning,0825.3,5.00,000.00,028.8,027.5,000.0,037.2,030.4,015.9,0000.0,0002.24,0006.58,0001.04
2024-06-04 23:13:00,SystemResetWarning,0825.3,4.99,000.00,028.9,027.8,000.0,037.2,030.6,015.8,0000.0,0002.20,0006.96,0001.04
2024-06-04 23:14:00,SystemResetWarning,0825.3,4.99,000.00,028.9,028.1,000.0,037.2,030.7,015.4,0000.0,0002.19,0007.43,0001.04
2024-06-04 23:15:00,SystemResetWarning,0825.3,5.00,000.00,029.0,028.3,000.0,037.3,030.9,014.7,0000.0,0002.19,0007.71,0001.04
2024-06-04 23:16:00,SystemResetWarning,0825.3,5.00,000.00,029.1,028.5,000.0,037.3,031.0,014.7,0000.0,0002.15,0007.63,0001.04
2024-06-04 23:17:00,SystemResetWarning,0825.3,5.00,000.00,029.2,028.7,000.0,037.3,031.0,014.3,0000.0,0002.10,0007.64,0001.03
2024-06-04 23:18:00,SystemResetWarning,0825.3,5.01,000.00,029.3,028.8,000.0,037.3,031.1,014.5,0000.0,0002.06,0007.85,0001.04
2024-06-04 23:19:00,SystemResetWarning,0825.3,5.00,000.00,029.3,029.0,000.0,037.4,031.2,014.4,0000.0,0002.03,0008.31,0001.04
2024-06-04 23:20:00,SystemResetWarning,0825.4,4.99,000.00,029.4,029.1,000.0,037.4,031.3,014.9,0000.0,0002.03,0008.27,0001.04
2024-06-04 23:21:00,SystemResetWarning,0825.4,5.00,000.00,029.5,029.2,000.0,037.5,031.4,014.9,0000.0,0001.96,0008.16,0001.04
2024-06-04 23:22:00,SystemResetWarning,0825.4,4.99,000.00,029.5,028.9,000.0,037.5,031.2,015.3,0000.0,0002.00,0008.16,0001.05
2024-06-04 23:23:00,SystemResetWarning,0825.3,5.00,000.00,029.3,026.5,000.0,037.6,030.1,015.0,0000.0,0002.05,0007.70,0001.05
2024-06-04 23:24:00,SystemResetWarning,0825.3,5.00,000.00,028.8,025.4,000.0,037.6,029.5,015.2,0000.0,0002.05,0007.20,0001.04
2024-06-04 23:25:00,SystemResetWarning,0825.3,5.02,000.00,028.7,025.9,000.0,037.5,029.7,015.9,0000.0,0002.08,0006.79,0001.04
2024-06-04 23:26:00,SystemResetWarning,0825.3,5.00,000.00,028.7,026.4,000.0,037.4,029.9,015.9,0000.0,0002.08,0006.22,0001.03
2024-06-04 23:27:00,SystemResetWarning,0825.4,5.00,000.00,028.7,026.9,000.0,037.3,030.2,015.4,0000.0,0002.12,0007.07,0001.04
2024-06-04 23:28:00,SystemResetWarning,0825.4,5.00,000.00,028.8,027.3,000.0,037.3,030.4,015.7,0000.0,0002.14,0006.96,0001.05
2024-06-04 23:29:00,SystemResetWarning,0825.4,5.01,000.00,028.9,027.6,000.0,037.3,030.6,015.7,0000.0,0002.16,0006.79,0001.04
2024-06-04 23:30:00,SystemResetWarning,0825.4,5.00,000.00,028.9,028.0,000.0,037.3,030.7,016.7,0000.0,0002.11,0007.36,0001.03
2024-06-04 23:31:00,SystemResetWarning,0825.4,4.98,000.00,029.0,028.2,000.0,037.3,030.8,016.1,0000.0,0002.03,0008.02,0001.02
2024-06-04 23:32:00,SystemResetWarning,0825.3,5.00,000.00,029.1,028.4,000.0,037.3,030.9,015.5,0000.0,0002.09,0008.15,0001.02
2024-06-04 23:33:00,SystemResetWarning,0825.4,5.01,000.00,029.2,028.6,000.0,037.3,031.0,016.3,0000.0,0002.08,0008.34,0001.02
2024-06-04 23:34:00,SystemResetWarning,0825.4,5.01,000.00,029.3,028.8,000.0,037.3,031.1,016.5,0000.0,0002.08,0008.55,0001.03
2024-06-04 23:35:00,SystemResetWarning,0825.4,4.99,000.00,029.3,028.9,000.0,037.4,031.2,016.0,0000.0,0002.12,0008.61,0001.03
2024-06-04 23:36:00,SystemResetWarning,0825.4,5.00,000.00,029.4,029.1,000.0,037.4,031.3,015.0,0000.0,0002.12,0008.58,0001.03
2024-06-04 23:37:00,SystemResetWarning,0825.4,4.99,000.00,029.5,029.2,000.0,037.5,031.4,015.1,0000.0,0002.13,0008.64,0001.04
2024-06-04 23:38:00,SystemResetWarning,0825.3,5.00,000.00,029.6,029.3,000.0,037.5,031.5,014.9,0000.0,0002.15,0008.67,0001.05
2024-06-04 23:39:00,SystemResetWarning,0825.4,5.00,000.00,029.6,029.0,000.0,037.6,031.3,014.7,0000.0,0002.12,0008.46,0001.03
2024-06-04 23:40:00,SystemResetWarning,0825.3,5.00,000.00,029.4,026.8,000.0,037.7,030.2,014.4,0000.0,0002.10,0008.91,0001.03
2024-06-04 23:41:00,SystemResetWarning,0825.3,5.00,000.00,028.9,025.4,000.0,037.7,029.5,015.1,0000.0,0002.10,0009.27,0001.03
2024-06-04 23:42:00,SystemResetWarning,0825.3,5.01,000.00,028.8,025.9,000.0,037.6,029.7,015.7,0000.0,0002.15,0009.32,0001.05
2024-06-04 23:43:00,SystemResetWarning,0825.3,5.00,000.00,028.8,026.4,000.0,037.5,029.9,015.5,0000.0,0002.16,0008.64,0001.06
2024-06-04 23:44:00,SystemResetWarning,0825.4,5.00,000.00,028.8,026.9,000.0,037.4,030.2,016.0,0000.0,0002.13,0008.56,0001.05
2024-06-04 23:45:00,SystemResetWarning,0825.4,5.00,000.00,028.9,027.3,000.0,037.4,030.4,015.3,0000.0,0002.04,0008.29,0001.06
2024-06-04 23:46:00,SystemResetWarning,0825.4,4.99,000.00,028.9,027.7,000.0,037.3,030.6,015.1,0000.0,0001.96,0008.05,0001.05
2024-06-04 23:47:00,SystemResetWarning,0825.4,5.00,000.00,029.0,028.0,000.0,037.3,030.7,015.5,0000.0,0001.94,0008.17,0001.05
2024-06-04 23:48:00,SystemResetWarning,0825.4,5.01,000.00,029.1,028.2,000.0,037.3,030.9,016.0,0000.0,0001.90,0008.57,0001.06
2024-06-04 23:49:00,SystemResetWarning,0825.4,5.00,000.00,029.2,028.5,000.0,037.3,031.0,016.1,0000.0,0001.83,0009.20,0001.04
2024-06-04 23:50:00,SystemResetWarning,0825.4,4.99,000.00,029.2,028.7,000.0,037.4,031.1,015.9,0000.0,0001.86,0009.26,0001.03
2024-06-04 23:51:00,SystemResetWarning,0825.4,5.00,000.00,029.3,028.8,000.0,037.4,031.2,015.3,0000.0,0001.92,0009.08,0001.05
2024-06-04 23:52:00,SystemResetWarning,0825.4,4.99,000.00,029.4,029.0,000.0,037.4,031.3,015.8,0000.0,0002.00,0009.00,0001.05
2024-06-04 23:53:00,SystemResetWarning,0825.4,5.00,000.00,029.5,029.1,000.0,037.5,031.3,015.6,0000.0,0001.99,0008.02,0001.05
2024-06-04 23:54:00,SystemResetWarning,0825.4,5.00,000.00,029.6,029.2,000.0,037.5,031.4,015.1,0000.0,0002.00,0008.63,0001.05
2024-06-04 23:55:00,SystemResetWarning,0825.4,5.00,000.00,029.6,029.0,000.0,037.6,031.3,014.5,0000.0,0002.01,0009.11,0001.06
2024-06-04 23:56:00,SystemResetWarning,0825.4,5.01,000.00,029.3,026.8,000.0,037.7,030.2,014.7,0000.0,0002.09,0009.47,0001.06
2024-06-04 23:57:00,SystemResetWarning,0825.3,5.00,000.00,028.9,025.4,000.0,037.7,029.6,014.9,0000.0,0002.14,0009.64,0001.07
2024-06-04 23:58:00,SystemResetWarning,0825.4,5.02,000.00,028.8,025.9,000.0,037.6,029.7,015.3,0000.0,0002.18,0009.54,0001.07
2024-06-04 23:59:00,SystemResetWarning,0825.4,4.99,000.00,028.8,026.4,000.0,037.5,030.0,015.2,0000.0,0002.24,0009.37,0001.07
